This is the latest recevied weather packets stored in our database for station/object DC1MPP-9. If no packets are shown the sender has not sent any weather packets the latest 10 day(s).
| Time | Temp. | Humidity | Pressure | Rain* | Wind** | Luminosity | Snow |
|---|---|---|---|---|---|---|---|
| 1787840079 | 31.11° C | 48% | 956 hPa | - | - | - | - |
| 1787839838 | 31.67° C | 48% | 956 hPa | - | - | - | - |
| 1787839356 | 31.11° C | 49% | 956 hPa | - | - | - | - |
| 1787839115 | 31.11° C | 46% | 956 hPa | - | - | - | - |
| 1787838874 | 31.11° C | 49% | 957 hPa | - | - | - | - |
| 1787838633 | 31.67° C | 48% | 957 hPa | - | - | - | - |
| 1787838391 | 32.22° C | 55% | 956 hPa | - | - | - | - |
| 1787838150 | 32.22° C | 48% | 956 hPa | - | - | - | - |
| 1787837909 | 32.22° C | 45% | 957 hPa | - | - | - | - |
| 1787837186 | 32.22° C | 46% | 957 hPa | - | - | - | - |
| 1787836463 | 31.67° C | 52% | 957 hPa | - | - | - | - |
| 1787836222 | 31.67° C | 48% | 957 hPa | - | - | - | - |
| 1787835981 | 31.67° C | 50% | 957 hPa | - | - | - | - |
| 1787835740 | 31.67° C | 54% | 957 hPa | - | - | - | - |
| 1787835499 | 31.11° C | 50% | 957 hPa | - | - | - | - |
| 1787835016 | 31.11° C | 52% | 957 hPa | - | - | - | - |
| 1787834775 | 31.11° C | 52% | 957 hPa | - | - | - | - |
| 1787834293 | 31.11° C | 53% | 957 hPa | - | - | - | - |
| 1787834052 | 31.11° C | 55% | 957 hPa | - | - | - | - |
| 1787833811 | 31.11° C | 55% | 957 hPa | - | - | - | - |
| 1787833570 | 31.11° C | 57% | 957 hPa | - | - | - | - |
| 1787833088 | 31.67° C | 57% | 957 hPa | - | - | - | - |
| 1787832847 | 31.11° C | 57% | 957 hPa | - | - | - | - |
| 1787832365 | 30.56° C | 58% | 957 hPa | - | - | - | - |
| 1787832124 | 31.11° C | 56% | 957 hPa | - | - | - | - |
* Rain since midnight (hover to see other rain measurements)
** Current wind speed in m/s (hover to see current wind gust speed)